�N����,����,�~����,�C��,���x,�C��,����,���ϕ���,�ő�u�ԕ���,�ő厞����,���˗�,�I�_���x,�n�����x,�ő啗���N��,DTYPE
"17/10/11","00:10",0.0,19.7,92.8,1012.1,312.6,0.6,1.1,317.9,0.00,18.5,21.4,"00:09:52",1
"17/10/11","00:20",0.0,19.8,92.8,1011.9,313.8,1.1,1.3,320.4,0.00,18.6,21.5,"00:10:32",1
"17/10/11","00:30",0.0,20.0,92.7,1012.1,299.5,1.0,1.4,330.8,0.00,18.8,21.4,"00:26:48",1
"17/10/11","00:40",0.0,20.3,92.4,1012.1,345.8,1.0,2.6,339.4,0.00,19.1,21.4,"00:33:44",1
"17/10/11","00:50",0.0,20.4,92.1,1011.6,324.0,0.3,0.9,314.1,0.00,19.1,21.4,"00:46:24",1
"17/10/11","01:00",0.0,20.4,91.8,1011.6,289.3,1.0,1.3,318.6,0.00,19.1,21.3,"00:54:40",1
"17/10/11","01:10",0.0,20.4,91.5,1011.6,307.4,1.1,1.7,320.8,0.00,19.0,21.6,"01:02:56",1
"17/10/11","01:20",0.0,20.5,91.6,1011.9,302.0,0.7,1.1,318.6,0.00,19.1,21.5,"01:15:36",1
"17/10/11","01:30",0.0,20.4,91.2,1011.9,297.4,0.7,1.6,288.8,0.00,19.0,21.3,"01:29:44",1
"17/10/11","01:40",0.0,20.4,91.0,1011.4,306.3,0.8,1.3,299.1,0.00,18.9,21.3,"01:30:24",1
"17/10/11","01:50",0.0,20.3,90.9,1011.2,310.7,1.1,1.4,319.4,0.00,18.8,21.6,"01:42:56",1
"17/10/11","02:00",0.0,20.1,90.6,1011.2,319.9,1.0,1.4,333.3,0.00,18.6,21.5,"01:53:04",1
"17/10/11","02:10",0.0,19.7,90.7,1010.9,303.3,0.7,1.2,335.9,0.00,18.2,21.2,"02:01:52",1
"17/10/11","02:20",0.0,19.5,91.3,1010.7,288.3,1.0,1.4,317.8,0.00,18.1,21.3,"02:18:08",1
"17/10/11","02:30",0.0,19.3,91.7,1010.4,320.4,1.2,1.8,336.3,0.00,18.0,21.3,"02:27:36",1
"17/10/11","02:40",0.0,19.0,92.0,1010.4,313.4,1.1,1.6,317.1,0.00,17.7,21.2,"02:39:04",1
"17/10/11","02:50",0.0,18.8,92.1,1010.4,296.8,1.0,1.7,324.9,0.00,17.5,21.1,"02:42:24",1
"17/10/11","03:00",0.0,18.6,92.8,1010.2,297.8,1.2,1.8,325.5,0.00,17.5,21.1,"02:57:28",1
"17/10/11","03:10",0.0,18.6,93.1,1010.2,314.2,1.3,1.8,326.7,0.00,17.5,21.2,"03:05:36",1
"17/10/11","03:20",0.0,18.3,93.2,1010.2,304.4,1.1,1.6,323.2,0.00,17.2,21.1,"03:12:00",1
"17/10/11","03:30",0.0,18.3,93.7,1010.2,295.6,1.2,1.7,301.2,0.00,17.3,20.8,"03:29:52",1
"17/10/11","03:40",0.0,18.1,93.9,1010.2,299.5,1.1,1.6,314.1,0.00,17.1,20.9,"03:38:24",1
"17/10/11","03:50",0.0,18.1,94.2,1009.7,294.2,1.2,1.6,307.7,0.00,17.2,21.0,"03:45:44",1
"17/10/11","04:00",0.0,18.2,94.3,1010.2,301.5,1.3,2.1,328.4,0.00,17.3,20.9,"03:55:12",1
"17/10/11","04:10",0.0,18.2,94.3,1010.2,289.3,1.2,1.8,312.0,0.00,17.3,20.8,"04:05:20",1
"17/10/11","04:20",0.0,18.2,94.3,1010.2,301.4,1.3,2.2,314.9,0.00,17.3,20.7,"04:18:16",1
"17/10/11","04:30",0.0,18.2,94.3,1010.2,287.0,1.2,1.4,306.3,0.00,17.3,20.9,"04:21:20",1
"17/10/11","04:40",0.0,18.1,94.2,1010.0,314.3,1.2,2.0,313.7,0.00,17.2,20.8,"04:39:52",1
"17/10/11","04:50",0.0,17.9,94.4,1010.7,319.7,1.5,1.9,322.5,0.00,17.0,20.6,"04:44:48",1
"17/10/11","05:00",0.0,17.7,94.5,1010.7,300.7,1.1,1.6,307.8,0.00,16.8,20.8,"04:52:32",1
"17/10/11","05:10",0.0,17.6,94.8,1010.7,315.4,0.7,1.9,312.4,0.00,16.8,20.7,"05:03:12",1
"17/10/11","05:20",0.0,17.5,94.8,1010.7,310.9,1.1,2.0,319.2,0.00,16.7,20.6,"05:19:36",1
"17/10/11","05:30",0.0,17.4,95.1,1010.9,316.9,1.3,2.1,321.0,0.00,16.6,20.5,"05:20:40",1
"17/10/11","05:40",0.0,17.2,95.2,1010.9,288.1,0.7,1.1,307.6,0.00,16.5,20.5,"05:30:16",1
"17/10/11","05:50",0.0,17.2,95.5,1011.6,305.5,1.5,2.2,314.6,0.00,16.5,20.5,"05:46:32",1
"17/10/11","06:00",0.0,17.2,95.5,1011.2,313.8,1.3,1.9,323.7,0.00,16.5,20.5,"05:50:40",1
"17/10/11","06:10",0.0,17.1,95.7,1011.2,298.7,0.8,1.3,318.5,0.00,16.4,20.5,"06:08:00",1
"17/10/11","06:20",0.0,17.3,96.1,1011.4,316.2,1.5,2.1,322.0,0.00,16.7,20.4,"06:15:52",1
"17/10/11","06:30",0.0,17.5,96.0,1011.4,306.2,1.1,2.0,326.0,0.00,16.9,20.5,"06:20:24",1
"17/10/11","06:40",0.0,17.7,96.4,1011.9,311.4,0.5,1.0,316.2,0.01,17.2,20.3,"06:38:40",1
"17/10/11","06:50",0.0,18.4,96.5,1011.6,322.1,1.2,1.8,317.4,0.02,17.9,20.4,"06:44:40",1
"17/10/11","07:00",0.0,19.0,96.1,1011.6,318.3,0.7,1.0,324.8,0.02,18.4,20.3,"06:50:40",1
"17/10/11","07:10",0.0,19.2,95.7,1011.9,284.3,0.6,1.2,312.9,0.02,18.5,20.2,"07:08:00",1
"17/10/11","07:20",0.0,19.5,95.0,1012.1,317.6,0.8,1.6,330.5,0.03,18.7,20.5,"07:17:28",1
"17/10/11","07:30",0.0,19.8,94.6,1011.9,309.4,1.2,2.0,328.0,0.04,18.9,20.4,"07:23:36",1
"17/10/11","07:40",0.0,20.1,93.9,1011.9,286.3,0.8,1.3,250.8,0.06,19.1,20.5,"07:37:28",1
"17/10/11","07:50",0.0,20.8,89.1,1011.9,267.1,0.8,1.7,246.8,0.10,19.0,20.6,"07:43:12",1
"17/10/11","08:00",0.0,21.4,86.4,1011.9,321.9,0.6,1.3,314.8,0.12,19.1,20.6,"07:51:36",1
"17/10/11","08:10",0.0,22.3,84.5,1012.1,319.1,0.3,1.1,339.0,0.15,19.6,20.7,"08:02:32",1
"17/10/11","08:20",0.0,22.4,81.7,1012.1,181.0,0.3,1.1,187.5,0.16,19.2,20.9,"08:19:36",1
"17/10/11","08:30",0.0,22.3,82.6,1012.1,253.7,0.6,1.6,228.1,0.15,19.2,20.8,"08:29:04",1
"17/10/11","08:40",0.0,22.4,82.9,1012.3,254.3,1.0,1.6,236.9,0.15,19.4,20.9,"08:30:08",1
"17/10/11","08:50",0.0,22.8,79.6,1011.6,257.3,0.5,1.1,239.4,0.18,19.1,21.1,"08:46:40",1
"17/10/11","09:00",0.0,23.8,77.3,1011.4,280.4,0.5,1.3,338.4,0.28,19.6,21.0,"08:59:44",1
"17/10/11","09:10",0.0,24.0,77.3,1011.4,326.5,0.3,1.3,339.1,0.25,19.8,21.1,"09:01:04",1
"17/10/11","09:20",0.0,24.0,74.9,1010.9,211.7,0.7,1.9,221.1,0.30,19.3,21.2,"09:18:48",1
"17/10/11","09:30",0.0,25.0,72.3,1010.4,127.2,0.6,1.6,114.9,0.34,19.7,21.3,"09:22:32",1
"17/10/11","09:40",0.0,24.9,71.2,1010.4,355.6,0.5,1.2,66.4,0.27,19.4,21.4,"09:30:08",1
"17/10/11","09:50",0.0,24.4,71.4,1009.5,195.8,1.1,2.8,213.0,0.22,18.9,21.6,"09:44:48",1
"17/10/11","10:00",0.0,24.5,72.5,1010.2,200.6,1.2,2.7,197.7,0.22,19.3,21.6,"09:51:20",1
"17/10/11","10:10",0.0,24.9,70.5,1009.0,206.9,0.6,1.9,230.4,0.25,19.2,21.8,"10:09:04",1
"17/10/11","10:20",0.0,25.6,69.7,1009.3,225.5,0.7,1.8,191.3,0.36,19.7,21.9,"10:11:04",1
"17/10/11","10:30",0.0,26.3,66.4,1009.7,121.8,0.7,1.9,343.4,0.40,19.6,21.9,"10:20:24",1
"17/10/11","10:40",0.0,26.6,66.1,1010.0,72.3,0.8,1.7,128.4,0.43,19.8,22.0,"10:39:36",1
"17/10/11","10:50",0.0,26.9,67.5,1010.0,133.6,0.7,2.0,119.5,0.41,20.4,22.2,"10:47:52",1
"17/10/11","11:00",0.0,27.4,68.2,1010.2,163.4,1.0,2.7,112.8,0.48,21.1,22.5,"10:55:12",1
"17/10/11","11:10",0.0,27.0,66.2,1010.0,191.4,1.5,2.7,184.2,0.46,20.2,22.6,"11:00:16",1
"17/10/11","11:20",0.0,27.9,65.0,1010.0,182.1,1.0,2.6,200.4,0.49,20.8,22.7,"11:19:44",1
"17/10/11","11:30",0.0,27.7,65.5,1010.0,191.2,1.3,2.6,165.3,0.48,20.7,22.9,"11:21:04",1
"17/10/11","11:40",0.0,27.4,65.2,1010.0,168.7,1.1,3.1,214.4,0.37,20.3,22.8,"11:39:52",1
"17/10/11","11:50",0.0,27.4,64.5,1009.3,226.3,1.1,2.8,226.2,0.34,20.2,23.2,"11:40:16",1
"17/10/11","12:00",0.0,27.9,63.6,1009.0,182.2,1.2,3.3,205.6,0.39,20.4,23.2,"11:56:08",1
"17/10/11","12:10",0.0,28.1,63.3,1009.0,224.5,1.2,2.7,203.0,0.46,20.5,23.4,"12:06:48",1
"17/10/11","12:20",0.0,27.3,63.9,1008.8,163.8,1.1,2.9,200.6,0.25,19.9,23.3,"12:10:48",1
"17/10/11","12:30",0.0,28.6,60.9,1009.0,136.4,0.6,1.6,123.1,0.46,20.4,23.7,"12:26:16",1
"17/10/11","12:40",0.0,29.4,58.4,1009.3,144.9,0.5,1.7,102.5,0.47,20.4,23.7,"12:36:40",1
"17/10/11","12:50",0.0,29.1,58.0,1009.0,321.9,1.0,2.4,350.3,0.46,20.0,24.0,"12:44:00",1
"17/10/11","13:00",0.0,28.9,58.9,1008.8,337.5,1.2,3.6,346.7,0.45,20.1,24.0,"12:58:16",1
"17/10/11","13:10",0.0,29.2,56.4,1008.8,204.6,1.5,4.0,202.0,0.44,19.7,24.2,"13:00:48",1
"17/10/11","13:20",0.0,29.2,58.5,1008.6,226.7,1.7,3.3,221.5,0.43,20.3,24.2,"13:18:16",1
"17/10/11","13:30",0.0,29.8,55.8,1008.3,199.9,1.0,2.8,199.6,0.40,20.1,24.6,"13:22:24",1
"17/10/11","13:40",0.0,29.9,55.9,1008.8,219.1,1.0,2.8,209.9,0.41,20.2,24.5,"13:38:56",1
"17/10/11","13:50",0.0,29.8,54.1,1008.8,231.5,1.0,2.1,224.7,0.37,19.6,24.6,"13:40:32",1
"17/10/11","14:00",0.0,30.0,55.0,1008.6,269.8,1.0,2.9,353.1,0.38,20.0,24.4,"13:58:00",1
"17/10/11","14:10",0.0,29.5,55.7,1008.1,299.4,1.2,3.2,201.9,0.30,19.8,24.7,"14:00:48",1
"17/10/11","14:20",0.0,29.2,55.5,1008.1,327.0,0.7,2.0,29.0,0.23,19.4,24.4,"14:11:12",1
"17/10/11","14:30",0.0,28.5,59.6,1007.4,278.0,0.6,1.9,345.8,0.11,19.9,24.6,"14:20:24",1
"17/10/11","14:40",0.0,29.3,58.0,1007.1,244.4,0.5,1.2,233.3,0.21,20.2,24.6,"14:30:24",1
"17/10/11","14:50",0.0,29.3,56.1,1007.4,206.7,1.2,2.8,217.8,0.28,19.7,24.7,"14:47:12",1
"17/10/11","15:00",0.0,29.3,58.9,1007.1,203.0,1.1,3.3,198.4,0.25,20.5,24.6,"14:55:12",1
"17/10/11","15:10",0.0,29.2,60.4,1007.4,169.9,0.8,1.7,189.4,0.19,20.8,24.6,"15:02:32",1
"17/10/11","15:20",0.0,28.6,59.3,1007.1,122.8,0.7,1.6,129.4,0.12,19.9,24.6,"15:12:56",1
"17/10/11","15:30",0.0,28.9,59.5,1007.4,217.9,1.2,2.7,208.3,0.17,20.3,24.6,"15:26:16",1
"17/10/11","15:40",0.0,28.8,61.3,1006.9,234.2,0.6,1.8,220.4,0.14,20.7,24.6,"15:34:16",1
"17/10/11","15:50",0.0,29.1,61.9,1006.9,246.7,0.3,1.6,226.9,0.12,21.1,24.5,"15:40:40",1
"17/10/11","16:00",0.0,29.0,60.7,1006.4,263.3,0.6,1.3,325.9,0.10,20.7,24.5,"15:53:52",1
"17/10/11","16:10",0.0,28.8,60.5,1006.2,233.9,0.5,1.4,213.7,0.09,20.4,24.4,"16:07:00",1
"17/10/11","16:20",0.0,28.5,61.4,1006.2,191.0,0.7,1.7,216.8,0.06,20.4,24.4,"16:11:20",1
"17/10/11","16:30",0.0,28.2,64.5,1005.7,211.8,0.7,1.6,230.7,0.06,20.9,24.2,"16:23:52",1
"17/10/11","16:40",0.0,27.3,67.3,1005.5,196.7,1.2,3.2,220.0,0.03,20.7,24.3,"16:39:20",1
"17/10/11","16:50",0.0,26.7,69.7,1006.0,227.0,1.0,2.5,229.6,0.03,20.7,24.2,"16:43:36",1
"17/10/11","17:00",0.0,26.2,70.6,1006.2,296.2,0.8,1.7,301.6,0.00,20.5,24.1,"16:55:04",1
"17/10/11","17:10",0.0,25.8,73.3,1006.2,329.0,1.0,1.4,353.6,0.00,20.7,23.9,"17:04:08",1
"17/10/11","17:20",0.0,25.2,75.3,1006.2,343.9,1.1,1.8,356.1,0.00,20.6,24.1,"17:10:40",1
"17/10/11","17:30",0.0,24.6,77.5,1006.9,334.9,1.2,1.8,330.6,0.00,20.4,23.7,"17:21:20",1
"17/10/11","17:40",0.0,24.2,79.2,1007.1,325.5,1.2,1.8,338.4,0.00,20.4,23.7,"17:35:52",1
"17/10/11","17:50",0.0,23.9,80.2,1007.1,303.1,1.0,2.2,338.7,0.00,20.3,23.6,"17:49:36",1
"17/10/11","18:00",0.0,23.6,81.0,1007.8,285.0,0.8,1.2,320.2,0.00,20.2,23.6,"17:50:24",1
"17/10/11","18:10",0.0,23.3,81.9,1007.8,315.7,1.2,2.2,334.1,0.00,20.1,23.6,"18:09:20",1
"17/10/11","18:20",0.0,23.1,82.5,1008.1,304.4,1.0,2.0,322.7,0.00,20.0,23.4,"18:11:20",1
"17/10/11","18:30",0.0,22.9,83.0,1008.3,301.6,1.3,2.0,270.7,0.00,19.9,23.2,"18:22:48",1
"17/10/11","18:40",0.0,22.8,83.4,1008.3,317.3,1.2,2.1,319.2,0.00,19.9,23.4,"18:39:28",1
"17/10/11","18:50",0.0,22.9,83.5,1008.6,319.6,1.8,3.4,313.5,0.00,20.0,23.2,"18:42:08",1
"17/10/11","19:00",0.0,22.9,83.6,1008.6,320.4,1.5,2.1,323.9,0.00,20.0,23.1,"18:54:16",1
"17/10/11","19:10",0.0,22.6,84.0,1009.0,312.5,1.7,2.6,322.8,0.00,19.8,23.0,"19:09:52",1
"17/10/11","19:20",0.0,22.6,84.5,1009.3,311.8,1.8,3.4,335.8,0.00,19.9,23.0,"19:13:36",1
"17/10/11","19:30",0.0,22.5,84.6,1009.3,303.5,1.2,1.9,305.8,0.00,19.8,22.9,"19:26:16",1
"17/10/11","19:40",0.0,22.4,84.8,1008.8,312.5,1.1,2.2,324.5,0.00,19.8,22.9,"19:32:56",1
"17/10/11","19:50",0.0,22.2,85.4,1009.0,290.7,0.8,1.4,250.9,0.00,19.7,22.8,"19:45:28",1
"17/10/11","20:00",0.0,21.9,86.0,1009.3,301.6,1.1,2.2,309.6,0.00,19.5,22.7,"19:59:12",1
"17/10/11","20:10",0.0,21.6,86.8,1009.3,294.5,0.8,1.3,322.2,0.00,19.3,22.9,"20:02:56",1
"17/10/11","20:20",0.0,21.5,88.1,1009.0,323.1,1.0,1.4,344.4,0.00,19.5,22.7,"20:14:24",1
"17/10/11","20:30",0.0,21.7,88.1,1009.3,347.1,1.2,2.1,343.1,0.00,19.7,22.6,"20:21:36",1
"17/10/11","20:40",0.0,21.5,88.2,1009.3,322.0,1.5,2.7,340.9,0.00,19.5,22.6,"20:30:24",1
"17/10/11","20:50",0.0,21.5,88.9,1009.7,306.6,1.0,1.3,300.8,0.00,19.6,22.5,"20:44:56",1
"17/10/11","21:00",0.0,21.3,89.2,1009.7,302.0,1.2,1.9,331.3,0.00,19.5,22.5,"20:54:00",1
"17/10/11","21:10",0.0,21.2,89.6,1009.5,314.7,1.2,1.8,324.4,0.00,19.5,22.4,"21:01:44",1
"17/10/11","21:20",0.0,21.1,89.9,1009.5,300.4,1.1,1.7,324.9,0.00,19.4,22.3,"21:15:28",1
"17/10/11","21:30",0.0,20.9,90.0,1009.5,306.6,0.7,1.3,326.9,0.00,19.2,22.3,"21:23:36",1
"17/10/11","21:40",0.0,20.8,90.8,1009.7,291.6,1.0,1.6,334.6,0.00,19.3,22.3,"21:39:20",1
"17/10/11","21:50",0.0,20.9,91.4,1009.7,327.0,1.5,2.4,329.2,0.00,19.5,22.2,"21:42:32",1
"17/10/11","22:00",0.0,21.0,91.4,1009.7,319.2,1.8,2.7,322.4,0.00,19.6,22.1,"21:59:52",1
"17/10/11","22:10",0.0,21.2,91.5,1010.4,325.0,2.0,2.8,312.8,0.00,19.8,22.1,"22:09:04",1
"17/10/11","22:20",0.0,21.4,91.0,1010.2,321.8,1.7,2.5,329.6,0.00,19.9,22.0,"22:16:32",1
"17/10/11","22:30",0.0,21.6,90.2,1010.2,323.7,1.7,2.9,310.4,0.00,20.0,22.0,"22:27:52",1
"17/10/11","22:40",0.0,21.6,89.2,1010.0,323.1,1.3,2.5,326.4,0.00,19.8,22.0,"22:33:20",1
"17/10/11","22:50",0.0,21.5,88.9,1010.2,307.7,1.3,2.2,331.5,0.00,19.6,22.1,"22:49:04",1
"17/10/11","23:00",0.0,21.4,89.1,1010.2,323.1,1.7,2.9,307.1,0.00,19.6,21.9,"22:53:20",1
"17/10/11","23:10",0.0,21.4,89.1,1010.2,343.6,1.2,1.8,12.1,0.00,19.6,21.9,"23:06:32",1
"17/10/11","23:20",0.0,21.3,88.9,1010.0,322.6,1.6,2.2,298.4,0.00,19.4,22.1,"23:19:36",1
"17/10/11","23:30",0.0,21.4,89.0,1010.0,321.5,1.8,2.8,328.7,0.00,19.6,22.0,"23:29:52",1
"17/10/11","23:40",0.0,21.5,88.6,1010.0,308.3,1.6,2.6,315.8,0.00,19.6,22.0,"23:31:04",1
"17/10/11","23:50",0.0,21.6,88.3,1010.0,305.8,1.5,3.5,336.0,0.00,19.6,22.1,"23:48:48",1
"17/10/11","24:00",0.0,21.7,87.9,1010.0,291.4,1.3,3.1,321.0,0.00,19.6,21.8,"23:51:12",1
